DW2019 Weather Reports


Display with metric or nautical units.
time (UTC)temp
F
wind
direction
speed
MPH
gust
MPH
rain 1hr
in
rain 24hr
in
rain mn
in
humidity
%
barometer
mb
20191210103634 10 249 1.0 8.0 0.00 0.12 0.00 80 1016.7
20191210103141 11 244 2.0 11.0 0.00 0.12 0.00 80 1016.7
20191210102959 11 253 4.0 10.0 0.00 0.12 0.00 80 1016.9
20191210102200 11 244 1.0 9.0 0.00 0.12 0.00 79 1016.6
20191210101127 11 242 2.0 16.0 0.00 0.12 0.00 79 1016.3
20191210100345 11 248 4.0 16.0 0.00 0.12 0.00 79 1016.1
20191210095646 11 254 3.0 12.0 0.00 0.12 0.00 79 1015.8
20191210095130 11 242 3.0 11.0 0.00 0.12 0.00 80 1015.9
20191210095028 11 228 3.0 10.0 0.00 0.12 0.00 80 1015.8
20191210094133 11 254 3.0 10.0 0.00 0.12 0.00 80 1015.8
20191210093638 12 235 1.0 14.0 0.00 0.12 0.00 80 1015.8
20191210093143 12 265 4.0 14.0 0.00 0.12 0.00 80 1015.6
20191210092628 12 243 6.0 13.0 0.00 0.12 0.00 81 1015.5
20191210092133 12 245 4.0 12.0 0.00 0.12 0.00 81 1015.4
20191210091638 12 242 4.0 13.0 0.00 0.12 0.00 81 1015.6
20191210091143 12 249 4.0 13.0 0.00 0.12 0.00 80 1015.5
20191210090628 12 230 2.0 15.0 0.00 0.12 0.00 81 1015.5
20191210090134 13 246 4.0 15.0 0.00 0.12 0.00 81 1015.3
20191210085641 13 246 4.0 16.0 0.00 0.13 0.00 81 1015.2
20191210085126 13 238 3.0 16.0 0.00 0.13 0.00 81 1015.1
20191210084631 13 254 3.0 12.0 0.00 0.13 0.00 81 1015.2
20191210084137 14 244 2.0 12.0 0.00 0.13 0.00 81 1015.2
20191210083950 14 244 3.0 22.0 0.00 0.13 0.00 82 1015.2
20191210083129 14 267 6.0 22.0 0.00 0.13 0.00 82 1015.1
20191210082946 14 246 4.0 14.0 0.00 0.13 0.00 82 1015.1
20191210082056 14 242 7.0 18.0 0.00 0.13 0.00 83 1014.9
20191210081138 14 250 8.0 18.0 0.00 0.13 0.00 83 1014.9
20191210080643 14 243 7.0 16.0 0.00 0.13 0.00 83 1014.8
20191210080128 15 246 6.0 16.0 0.00 0.13 0.00 84 1014.6
20191210075633 15 246 4.0 13.0 0.00 0.13 0.00 84 1014.7
20191210075130 15 247 6.0 13.0 0.00 0.13 0.00 85 1014.6
20191210074132 15 250 7.0 13.0 0.00 0.13 0.00 85 1014.5
20191210073637 15 242 8.0 12.0 0.00 0.13 0.00 85 1014.6
20191210073126 16 255 5.0 15.0 0.00 0.13 0.00 85 1014.3
20191210072631 16 245 4.0 14.0 0.00 0.13 0.00 85 1014.0
20191210072136 16 252 3.0 12.0 0.00 0.13 0.00 85 1013.8
20191210071641 16 252 4.0 16.0 0.00 0.13 0.00 85 1013.9
20191210071145 16 302 6.0 16.0 0.00 0.13 0.00 85 1013.9
20191210070630 16 235 7.0 11.0 0.00 0.13 0.00 85 1013.8
20191210070135 16 228 3.0 14.0 0.00 0.13 0.00 84 1013.7
20191210065640 16 263 5.0 14.0 0.00 0.13 0.00 84 1013.5
20191210065126 16 240 4.0 13.0 0.00 0.13 0.00 84 1013.4
20191210064632 16 239 5.0 13.0 0.00 0.13 0.00 84 1013.4
20191210064141 17 288 2.0 14.0 0.00 0.13 0.00 84 1013.3
20191210063626 17 234 5.0 14.0 0.00 0.13 0.00 85 1013.2
20191210063131 17 244 1.0 12.0 0.00 0.13 0.00 85 1013.2
20191210062636 17 242 6.0 13.0 0.00 0.13 0.00 85 1013.3
20191210062349 17 245 5.0 18.0 0.00 0.13 0.00 84 1013.0
20191210061635 17 248 6.0 18.0 0.00 0.13 0.00 85 1013.0
20191210061339 17 250 3.0 9.0 0.00 0.13 0.00 85 1012.9
20191210060346 17 258 4.0 15.0 0.00 0.13 0.13 85 1012.6
20191210055132 17 245 4.0 12.0 0.00 0.13 0.13 85 1012.6
20191210055005 17 246 5.0 12.0 0.00 0.13 0.13 85 1012.5
20191210054144 18 245 1.0 12.0 0.00 0.13 0.13 85 1012.3
20191210053629 18 237 2.0 11.0 0.00 0.13 0.13 85 1012.3
20191210053134 18 234 1.0 11.0 0.00 0.13 0.13 85 1012.2
20191210052639 18 236 3.0 10.0 0.00 0.13 0.13 85 1012.1
20191210052144 18 243 4.0 14.0 0.00 0.13 0.13 85 1011.8
20191210051629 18 244 3.0 14.0 0.00 0.13 0.13 85 1011.9
20191210051134 18 248 4.0 10.0 0.00 0.13 0.13 85 1011.7
20191210050638 18 244 2.0 10.0 0.00 0.13 0.13 85 1011.7
20191210050127 18 248 2.0 10.0 0.00 0.13 0.13 85 1011.5
20191210045632 18 269 1.0 12.0 0.00 0.13 0.13 85 1011.1
20191210045137 18 258 5.0 12.0 0.00 0.13 0.13 85 1011.0
20191210044642 18 255 2.0 11.0 0.00 0.13 0.13 85 1010.7
20191210044127 18 283 1.0 14.0 0.00 0.13 0.13 85 1010.8
20191210043633 18 232 2.0 18.0 0.00 0.13 0.13 84 1010.7
20191210043137 18 250 4.0 18.0 0.00 0.13 0.13 84 1010.6
20191210042642 18 243 2.0 10.0 0.00 0.13 0.13 85 1010.6
20191210042127 18 222 2.0 10.0 0.00 0.13 0.13 85 1010.6
20191210041633 18 237 1.0 12.0 0.00 0.13 0.13 85 1010.6
20191210041141 18 242 4.0 12.0 0.00 0.13 0.13 85 1010.6
20191210041035 18 243 6.0 12.0 0.00 0.13 0.13 85 1010.4
20191210040459 19 242 2.0 11.0 0.00 0.13 0.13 85 1010.2
20191210035629 19 236 4.0 19.0 0.00 0.13 0.13 85 1010.1
20191210035425 19 245 4.0 19.0 0.00 0.13 0.13 85 1009.8
20191210034627 19 265 4.0 16.0 0.00 0.13 0.13 85 1009.6
20191210034132 19 260 4.0 16.0 0.00 0.13 0.13 85 1009.5
20191210033637 19 240 3.0 14.0 0.00 0.13 0.13 85 1009.5
20191210033142 19 248 4.0 20.0 0.00 0.13 0.13 85 1009.5
20191210032626 20 262 4.0 20.0 0.00 0.13 0.13 85 1009.2
20191210032132 20 215 4.0 14.0 0.00 0.13 0.13 85 1008.9
20191210031845 20 228 2.0 8.0 0.00 0.13 0.13 85 1008.8
20191210031128 20 240 1.0 9.0 0.00 0.13 0.13 86 1008.6
20191210030633 20 285 2.0 9.0 0.00 0.13 0.13 86 1008.5
20191210030136 21 242 1.0 10.0 0.00 0.13 0.13 86 1008.6
20191210025641 21 243 2.0 10.0 0.00 0.13 0.13 85 1008.6
20191210025146 21 238 3.0 14.0 0.00 0.13 0.13 85 1008.1
20191210024631 21 250 4.0 15.0 0.00 0.13 0.13 85 1008.1
20191210024136 21 259 4.0 15.0 0.00 0.13 0.13 85 1008.0
20191210023642 21 272 3.0 11.0 0.00 0.13 0.13 85 1007.8
20191210023130 21 247 2.0 12.0 0.00 0.13 0.13 85 1007.5
20191210022635 22 260 3.0 12.0 0.00 0.13 0.13 85 1007.6
20191210022140 22 259 3.0 10.0 0.00 0.13 0.13 86 1007.7
20191210021645 22 257 2.0 17.0 0.00 0.13 0.13 85 1007.5
20191210021220 22 246 5.0 15.0 0.00 0.13 0.13 86 1007.6
20191210020421 22 243 5.0 15.0 0.00 0.13 0.13 86 1007.4
20191210015639 22 249 4.0 18.0 0.00 0.13 0.13 86 1007.1
20191210015437 23 252 5.0 18.0 0.00 0.13 0.13 86 1007.0
20191210014637 23 238 4.0 10.0 0.00 0.13 0.13 86 1006.9
20191210014142 23 277 3.0 14.0 0.00 0.13 0.13 86 1006.8
20191210013627 23 247 2.0 11.0 0.00 0.13 0.13 86 1006.6
20191210013132 23 261 1.0 10.0 0.00 0.13 0.13 86 1006.3
20191210012637 23 298 1.0 10.0 0.00 0.13 0.13 85 1006.3
20191210012142 23 259 2.0 10.0 0.00 0.13 0.13 85 1006.2
20191210011857 23 279 3.0 11.0 0.00 0.13 0.13 85 1006.4
20191210011142 23 248 1.0 17.0 0.00 0.13 0.13 85 1006.2
20191210011015 23 252 7.0 17.0 0.00 0.13 0.13 85 1006.1
20191210010133 24 221 5.0 16.0 0.00 0.13 0.13 85 1006.1
20191210005635 24 279 2.0 17.0 0.00 0.13 0.13 85 1006.1
20191210005139 24 249 8.0 17.0 0.00 0.13 0.13 86 1005.7
20191210004644 25 247 5.0 19.0 0.00 0.13 0.13 87 1005.6
20191210003927 25 288 1.0 20.0 0.00 0.13 0.13 86 1004.7
20191210002720 25 278 5.0 16.0 0.00 0.13 0.13 87 1004.4
20191210001630 26 254 6.0 19.0 0.00 0.13 0.13 87 1004.3
20191210001134 26 248 6.0 16.0 0.00 0.13 0.13 87 1004.2
20191210000612 27 239 5.0 14.0 0.00 0.13 0.13 88 1004.0
20191209235626 27 219 3.0 12.0 0.00 0.13 0.13 89 1003.7
20191209235131 27 249 5.0 15.0 0.00 0.13 0.13 88 1003.7
20191209234950 27 246 5.0 15.0 0.00 0.13 0.13 88 1003.8
20191209234136 27 229 2.0 15.0 0.00 0.13 0.13 88 1003.8
20191209233640 27 223 1.0 20.0 0.00 0.13 0.13 88 1003.6
20191209233145 27 311 5.0 20.0 0.00 0.13 0.13 89 1003.6
20191209232630 27 225 2.0 17.0 0.00 0.13 0.13 89 1003.3
20191209232135 27 248 4.0 23.0 0.00 0.13 0.13 89 1003.3
20191209231643 28 227 7.0 23.0 0.00 0.13 0.13 90 1003.1
20191209231131 28 240 3.0 14.0 0.00 0.13 0.13 90 1003.4
20191209230639 28 240 3.0 14.0 0.00 0.13 0.13 90 1003.0
20191209230127 28 249 5.0 18.0 0.00 0.13 0.13 91 1003.0
20191209225635 28 262 3.0 18.0 0.00 0.13 0.13 91 1002.7
20191209225126 28 244 3.0 18.0 0.00 0.13 0.13 91 1002.4
20191209224634 29 259 6.0 16.0 0.00 0.13 0.13 91 1002.4
20191209224142 29 238 5.0 15.0 0.00 0.13 0.13 92 1002.5
20191209223627 29 284 5.0 16.0 0.00 0.13 0.13 92 1002.3
20191209223132 29 270 4.0 16.0 0.00 0.13 0.13 92 1002.1
20191209222638 30 232 4.0 14.0 0.00 0.13 0.13 92 1001.9
20191209222126 30 298 4.0 15.0 0.00 0.13 0.13 92 1001.8
20191209221634 30 240 4.0 11.0 0.01 0.13 0.13 93 1001.7
20191209221142 31 238 6.0 15.0 0.01 0.13 0.13 93 1001.3
20191209220636 31 246 5.0 26.0 0.01 0.13 0.13 93 1001.3
20191209215943 32 253 6.0 13.0 0.01 0.13 0.13 93 1001.1
20191209215140 32 284 3.0 13.0 0.01 0.13 0.13 93 1000.7
20191209214937 32 218 6.0 14.0 0.01 0.13 0.13 93 1000.6
20191209214129 32 232 3.0 18.0 0.01 0.13 0.13 93 1000.7
20191209213638 32 257 5.0 18.0 0.01 0.13 0.13 93 1000.6
20191209213126 33 238 6.0 17.0 0.01 0.13 0.13 93 1000.4
20191209212634 33 246 6.0 22.0 0.01 0.13 0.13 93 1000.2
20191209212126 34 267 5.0 22.0 0.01 0.13 0.13 94 999.9
20191209211634 34 264 6.0 20.0 0.00 0.12 0.12 94 999.7
20191209211122 35 255 5.0 12.0 0.00 0.12 0.12 93 999.4
20191209210630 35 238 5.0 15.0 0.00 0.12 0.12 94 999.3
20191209210138 36 248 5.0 15.0 0.00 0.12 0.12 94 999.1
20191209205625 36 232 4.0 10.0 0.00 0.12 0.12 94 998.9
20191209205133 37 221 3.0 17.0 0.00 0.12 0.12 94 998.9
20191209204641 37 246 5.0 17.0 0.00 0.12 0.12 94 998.9
20191209204339 38 258 3.0 12.0 0.00 0.12 0.12 94 998.4
20191209203632 40 249 2.0 13.0 0.00 0.12 0.12 94 998.1
20191209202634 40 244 4.0 13.0 0.00 0.12 0.12 94 998.1
20191209202510 41 243 6.0 14.0 0.00 0.12 0.12 94 998.0
20191209201623 41 265 7.0 14.0 0.00 0.12 0.12 94 997.8
20191209201216 42 262 2.0 11.0 0.00 0.12 0.12 94 997.4
20191209200214 42 221 3.0 14.0 0.01 0.12 0.12 94 997.8
20191209195048 43 240 4.0 14.0 0.01 0.12 0.12 94 997.7
20191209194126 43 240 6.0 9.0 0.01 0.12 0.12 94 997.4
20191209193634 43 241 3.0 11.0 0.01 0.12 0.12 94 997.4
20191209193126 43 241 4.0 11.0 0.01 0.12 0.12 94 997.4
20191209192634 44 247 2.0 11.0 0.01 0.12 0.12 94 997.5
20191209192122 44 244 3.0 11.0 0.01 0.12 0.12 94 997.4
20191209191630 44 233 2.0 8.0 0.01 0.12 0.12 94 997.4
20191209191137 44 236 2.0 9.0 0.01 0.12 0.12 94 997.4
20191209190625 44 244 1.0 12.0 0.01 0.12 0.12 94 997.2
20191209190133 44 241 2.0 10.0 0.01 0.12 0.12 94 997.2
20191209185641 45 234 1.0 9.0 0.00 0.11 0.11 94 997.0
20191209185129 45 229 4.0 9.0 0.00 0.11 0.11 94 997.0
20191209184638 45 220 3.0 7.0 0.00 0.11 0.11 94 997.0
20191209184437 45 219 3.0 7.0 0.00 0.11 0.11 94 997.2
20191209183622 45 219 3.0 7.0 0.00 0.11 0.11 94 997.1
20191209183419 45 218 2.0 8.0 0.00 0.11 0.11 94 997.0
20191209182636 45 218 4.0 8.0 0.00 0.11 0.11 94 997.1
20191209182119 45 215 3.0 7.0 0.00 0.11 0.11 94 997.2
20191209181131 45 215 4.0 6.0 0.00 0.11 0.11 94 997.1
20191209180557 45 215 4.0 8.0 0.00 0.11 0.11 94 997.2
20191209175632 45 214 3.0 9.0 0.00 0.11 0.11 94 997.2
20191209175134 45 209 2.0 8.0 0.00 0.11 0.11 94 997.2
20191209174033 45 205 5.0 8.0 0.00 0.11 0.11 94 997.3
20191209172623 45 212 4.0 8.0 0.00 0.11 0.11 94 997.3
20191209172131 45 216 3.0 7.0 0.00 0.11 0.11 94 997.4
20191209171623 45 216 4.0 7.0 0.00 0.11 0.11 94 997.3
20191209171131 45 215 4.0 9.0 0.00 0.11 0.11 94 997.3
20191209170639 45 215 4.0 9.0 0.00 0.11 0.11 94 997.3
20191209170127 45 214 4.0 8.0 0.00 0.11 0.11 94 997.4
20191209165635 45 214 2.0 8.0 0.00 0.11 0.11 94 997.6
20191209165123 45 216 4.0 8.0 0.00 0.11 0.11 94 997.7
20191209164631 45 215 2.0 9.0 0.00 0.11 0.11 94 997.7
20191209164139 45 216 3.0 9.0 0.00 0.11 0.11 94 997.7
20191209163627 45 207 3.0 9.0 0.00 0.11 0.11 94 997.8
20191209163139 44 203 5.0 9.0 0.00 0.11 0.11 94 998.0
20191209162627 44 207 3.0 8.0 0.00 0.11 0.11 94 998.2
20191209162135 44 205 4.0 9.0 0.00 0.11 0.11 94 998.2
20191209161623 44 219 3.0 10.0 0.00 0.11 0.11 94 998.2
20191209161131 44 199 4.0 11.0 0.00 0.11 0.11 94 998.3
20191209160640 44 194 5.0 11.0 0.00 0.11 0.11 94 998.4
20191209160128 44 194 5.0 10.0 0.01 0.11 0.11 94 998.3
20191209155636 44 197 4.0 9.0 0.01 0.11 0.11 94 998.4
20191209155124 44 197 5.0 9.0 0.01 0.11 0.11 94 998.4
20191209154636 44 194 4.0 11.0 0.01 0.11 0.11 94 998.4
20191209154124 44 194 5.0 11.0 0.01 0.11 0.11 94 998.4
20191209153632 44 194 4.0 10.0 0.01 0.11 0.11 94 998.5
20191209153140 44 199 5.0 7.0 0.02 0.11 0.11 94 998.5
20191209152628 44 198 5.0 10.0 0.02 0.11 0.11 94 998.5
20191209152136 44 198 4.0 10.0 0.02 0.11 0.11 94 998.6
20191209151624 44 194 3.0 10.0 0.02 0.11 0.11 94 998.6
20191209151132 44 191 5.0 8.0 0.02 0.11 0.11 94 998.5
20191209150639 44 192 4.0 11.0 0.03 0.11 0.11 94 998.6
20191209150131 44 191 5.0 11.0 0.02 0.10 0.10 94 998.7
20191209145640 44 188 3.0 8.0 0.02 0.10 0.10 94 998.8
20191209145127 44 184 0.0 8.0 0.02 0.10 0.10 94 998.7
20191209144634 44 188 4.0 10.0 0.02 0.10 0.10 94 998.9
20191209144122 43 188 5.0 10.0 0.03 0.10 0.10 94 998.8
20191209143630 43 180 4.0 10.0 0.03 0.10 0.10 94 998.9
20191209143138 43 181 5.0 10.0 0.02 0.09 0.09 94 998.9
20191209142626 43 180 3.0 7.0 0.02 0.09 0.09 94 998.9
20191209142134 43 180 4.0 8.0 0.02 0.09 0.09 94 998.9
20191209141626 43 179 4.0 8.0 0.02 0.09 0.09 94 998.9
20191209141134 43 178 3.0 8.0 0.03 0.09 0.09 94 999.0
20191209140641 43 177 3.0 6.0 0.02 0.08 0.08 94 999.0
20191209140130 43 177 4.0 10.0 0.02 0.08 0.08 94 999.1
20191209135638 43 177 5.0 11.0 0.02 0.08 0.08 94 999.2
20191209135126 43 172 5.0 9.0 0.02 0.08 0.08 94 999.2
20191209134634 43 169 6.0 10.0 0.01 0.07 0.07 94 999.2
20191209134123 43 168 4.0 8.0 0.01 0.07 0.07 94 999.2
20191209133630 43 167 5.0 8.0 0.02 0.07 0.07 94 999.3
20191209133122 43 167 0.0 9.0 0.02 0.07 0.07 94 999.4
20191209132631 43 167 2.0 9.0 0.02 0.07 0.07 94 999.5
20191209132138 43 165 5.0 7.0 0.02 0.07 0.07 94 999.3
20191209131626 43 164 5.0 8.0 0.01 0.06 0.06 94 999.4
20191209131134 43 163 4.0 8.0 0.01 0.06 0.06 94 999.4
20191209130622 43 164 5.0 9.0 0.01 0.06 0.06 94 999.3
20191209130130 43 163 5.0 7.0 0.01 0.06 0.06 94 999.4
20191209125638 43 163 4.0 8.0 0.02 0.06 0.06 94 999.5
20191209125126 43 163 4.0 8.0 0.02 0.06 0.06 94 999.5
20191209124634 43 163 3.0 8.0 0.02 0.06 0.06 94 999.5
20191209124127 43 163 4.0 9.0 0.02 0.06 0.06 94 999.5
20191209123635 43 163 3.0 9.0 0.01 0.05 0.05 94 999.6
20191209123123 43 162 4.0 7.0 0.01 0.05 0.05 94 999.6
20191209122631 43 162 5.0 10.0 0.01 0.05 0.05 94 999.7
20191209122139 43 162 3.0 10.0 0.01 0.05 0.05 94 999.7
20191209121627 43 155 1.0 7.0 0.01 0.05 0.05 94 999.8
20191209121135 43 155 3.0 7.0 0.02 0.05 0.05 94 999.9
20191209120624 43 155 2.0 7.0 0.02 0.05 0.05 94 999.9
20191209120131 43 155 2.0 7.0 0.01 0.04 0.04 94 999.8
20191209115623 43 155 0.0 7.0 0.01 0.04 0.04 94 999.8
20191209115131 43 155 1.0 7.0 0.01 0.04 0.04 94 999.8
20191209114639 43 155 0.0 5.0 0.01 0.04 0.04 94 999.8
20191209114127 43 155 2.0 7.0 0.01 0.04 0.04 94 999.8
20191209113635 43 155 1.0 7.0 0.01 0.04 0.04 94 999.9
20191209113123 43 155 3.0 6.0 0.02 0.04 0.04 94 1000.1
20191209112631 43 155 2.0 6.0 0.02 0.04 0.04 94 1000.1
20191209112138 43 155 2.0 7.0 0.02 0.04 0.04 94 1000.1
20191209111624 43 155 1.0 7.0 0.02 0.04 0.04 94 1000.1
20191209111136 43 155 2.0 6.0 0.01 0.03 0.03 94 1000.2
20191209110623 43 155 2.0 7.0 0.02 0.03 0.03 94 1000.2
20191209110131 43 155 3.0 7.0 0.02 0.03 0.03 94 1000.3
20191209105640 43 155 2.0 6.0 0.02 0.03 0.03 94 1000.4
20191209105128 43 155 1.0 6.0 0.02 0.03 0.03 94 1000.4
20191209104636 43 155 1.0 6.0 0.02 0.03 0.03 94 1000.3
20191209104124 43 155 2.0 7.0 0.02 0.03 0.03 94 1000.3